Location: Biberach+an+der+Riss
(48.0937°N, 9.7888°E)
Time: 04:38:31
(UTC+02:00)

ISS - Pass Details

Date: 01 October 2020
Orbit: 418 x 420 km, 51.6° (Epoch: 20 October)

Event Time Altitude Azimuth Distance (km) Brightness Sun altitude
Rises 21:06:04 0° 292° (WNW) 2,370 1.6 -21.7°
Reaches altitude 10° 21:08:11 10° 288° (WNW) 1,504 0.2 -22.0°
Enters shadow 21:10:57 47° 248° (WSW) 566 -2.9 -22.4°
